owner,sensor,date,latitude,longitude,vertical_datum,sea_water_temperature,qcFlag 
TABS,ioos:station:wmo:42048:1,2016-07-01T00:00:00Z,27.9396,-96.8429,-2.0,30.66,11111222 
TABS,ioos:station:wmo:42048:1,2016-07-01T00:30:00Z,27.9396,-96.8429,-2.0,30.58,11111222 
TABS,ioos:station:wmo:42048:1,2016-07-01T01:00:00Z,27.9396,-96.8429,-2.0,30.48,11111222 
TABS,ioos:station:wmo:42048:1,2016-07-01T01:30:00Z,27.9396,-96.8429,-2.0,30.38,11111222 
TABS,ioos:station:wmo:42048:1,2016-07-01T02:00:00Z,27.9396,-96.8429,-2.0,30.27,11111222 
TABS,ioos:station:wmo:42048:1,2016-07-01T02:30:00Z,27.9396,-96.8429,-2.0,30.16,11111222 
TABS,ioos:station:wmo:42048:1,2016-07-01T03:00:00Z,27.9396,-96.8429,-2.0,30.12,11111222 
TABS,ioos:station:wmo:42048:1,2016-07-01T03:30:00Z,27.9396,-96.8429,-2.0,30.1,11111222 
TABS,ioos:station:wmo:42048:1,2016-07-01T04:00:00Z,27.9396,-96.8429,-2.0,30.13,11111222 
TABS,ioos:station:wmo:42048:1,2016-07-01T04:30:00Z,27.9396,-96.8429,-2.0,30.14,11111222 
TABS,ioos:station:wmo:42048:1,2016-07-01T05:00:00Z,27.9396,-96.8429,-2.0,30.08,11111222 
TABS,ioos:station:wmo:42048:1,2016-07-01T05:30:00Z,27.9396,-96.8429,-2.0,30.06,11111222 
TABS,ioos:station:wmo:42048:1,2016-07-01T06:00:00Z,27.9396,-96.8429,-2.0,30.07,11111222 
TABS,ioos:station:wmo:42048:1,2016-07-02T21:30:00Z,27.9396,-96.8429,-2.0,30.1,11111222 
TABS,ioos:station:wmo:42048:1,2016-07-02T22:00:00Z,27.9396,-96.8429,-2.0,30.12,11111222 
TABS,ioos:station:wmo:42048:1,2016-07-02T22:30:00Z,27.9396,-96.8429,-2.0,30.09,11111222 
TABS,ioos:station:wmo:42048:1,2016-07-02T23:00:00Z,27.9396,-96.8429,-2.0,30.08,11111222 
TABS,ioos:station:wmo:42048:1,2016-07-02T23:30:00Z,27.9396,-96.8429,-2.0,30.1,11111222 
TABS,ioos:station:wmo:42048:1,2016-07-03T00:00:00Z,27.9396,-96.8429,-2.0,30.06,11111222 
TABS,ioos:station:wmo:42048:1,2016-07-03T00:30:00Z,27.9396,-96.8429,-2.0,30.02,11111222 
TABS,ioos:station:wmo:42048:1,2016-07-03T01:00:00Z,27.9396,-96.8429,-2.0,29.98,11111222 
TABS,ioos:station:wmo:42048:1,2016-07-03T01:30:00Z,27.9396,-96.8429,-2.0,29.92,11111222 
TABS,ioos:station:wmo:42048:1,2016-07-03T02:00:00Z,27.9396,-96.8429,-2.0,29.86,11111222 
TABS,ioos:station:wmo:42048:1,2016-07-03T02:30:00Z,27.9396,-96.8429,-2.0,29.85,11111222 
TABS,ioos:station:wmo:42048:1,2016-07-03T03:00:00Z,27.9396,-96.8429,-2.0,29.86,11111222 
TABS,ioos:station:wmo:42048:1,2016-07-03T03:30:00Z,27.9396,-96.8429,-2.0,29.84,11111222 
TABS,ioos:station:wmo:42048:1,2016-07-03T04:00:00Z,27.9396,-96.8429,-2.0,29.77,11111222 
TABS,ioos:station:wmo:42048:1,2016-07-03T04:30:00Z,27.9396,-96.8429,-2.0,29.78,11111222 
TABS,ioos:station:wmo:42048:1,2016-07-03T05:00:00Z,27.9396,-96.8429,-2.0,29.75,11111222 
TABS,ioos:station:wmo:42048:1,2016-07-03T05:30:00Z,27.9396,-96.8429,-2.0,29.73,11111222 
TABS,ioos:station:wmo:42048:1,2016-07-03T06:00:00Z,27.9396,-96.8429,-2.0,29.72,11111222 
TABS,ioos:station:wmo:42048:1,2016-07-03T06:30:00Z,27.9396,-96.8429,-2.0,29.67,11111222 
TABS,ioos:station:wmo:42048:1,2016-07-03T07:00:00Z,27.9396,-96.8429,-2.0,29.65,11111222 
TABS,ioos:station:wmo:42048:1,2016-07-03T07:30:00Z,27.9396,-96.8429,-2.0,29.61,11111222 
TABS,ioos:station:wmo:42048:1,2016-07-03T08:00:00Z,27.9396,-96.8429,-2.0,29.6,11111222 
TABS,ioos:station:wmo:42048:1,2016-07-03T08:30:00Z,27.9396,-96.8429,-2.0,29.58,11111222 
TABS,ioos:station:wmo:42048:1,2016-07-03T09:00:00Z,27.9396,-96.8429,-2.0,29.56,11111222 
TABS,ioos:station:wmo:42048:1,2016-07-03T09:30:00Z,27.9396,-96.8429,-2.0,29.53,11111222 
TABS,ioos:station:wmo:42048:1,2016-07-03T10:00:00Z,27.9396,-96.8429,-2.0,29.51,11111222 
TABS,ioos:station:wmo:42048:1,2016-07-03T10:30:00Z,27.9396,-96.8429,-2.0,29.49,11111222 
TABS,ioos:station:wmo:42048:1,2016-07-03T11:00:00Z,27.9396,-96.8429,-2.0,29.48,11111222 
TABS,ioos:station:wmo:42048:1,2016-07-03T11:30:00Z,27.9396,-96.8429,-2.0,29.5,11111222 
TABS,ioos:station:wmo:42048:1,2016-07-03T12:00:00Z,27.9396,-96.8429,-2.0,29.5,11111222 
TABS,ioos:station:wmo:42048:1,2016-07-03T12:30:00Z,27.9396,-96.8429,-2.0,29.49,11111222 
TABS,ioos:station:wmo:42048:1,2016-07-03T13:00:00Z,27.9396,-96.8429,-2.0,29.48,11111222 
TABS,ioos:station:wmo:42048:1,2016-07-03T13:30:00Z,27.9396,-96.8429,-2.0,29.45,11111222 
TABS,ioos:station:wmo:42048:1,2016-07-03T14:00:00Z,27.9396,-96.8429,-2.0,29.38,11111222 
TABS,ioos:station:wmo:42048:1,2016-07-03T14:30:00Z,27.9396,-96.8429,-2.0,29.32,11111222 
TABS,ioos:station:wmo:42048:1,2016-07-03T15:00:00Z,27.9396,-96.8429,-2.0,29.23,11111222 
TABS,ioos:station:wmo:42048:1,2016-07-03T15:30:00Z,27.9396,-96.8429,-2.0,29.14,11111222 
TABS,ioos:station:wmo:42048:1,2016-07-03T16:00:00Z,27.9396,-96.8429,-2.0,29.15,11111222 
TABS,ioos:station:wmo:42048:1,2016-07-03T16:30:00Z,27.9396,-96.8429,-2.0,29.12,11111222 
TABS,ioos:station:wmo:42048:1,2016-07-03T17:00:00Z,27.9396,-96.8429,-2.0,29.09,11111222 
TABS,ioos:station:wmo:42048:1,2016-07-03T17:30:00Z,27.9396,-96.8429,-2.0,29.07,11111222 
TABS,ioos:station:wmo:42048:1,2016-07-03T18:00:00Z,27.9396,-96.8429,-2.0,29.0,11111222 
TABS,ioos:station:wmo:42048:1,2016-07-03T18:30:00Z,27.9396,-96.8429,-2.0,29.22,11111222 
TABS,ioos:station:wmo:42048:1,2016-07-03T19:00:00Z,27.9396,-96.8429,-2.0,29.35,11111222 
TABS,ioos:station:wmo:42048:1,2016-07-03T19:30:00Z,27.9396,-96.8429,-2.0,29.33,11111222 
TABS,ioos:station:wmo:42048:1,2016-07-03T20:00:00Z,27.9396,-96.8429,-2.0,29.3,11111222 
TABS,ioos:station:wmo:42048:1,2016-07-03T20:30:00Z,27.9396,-96.8429,-2.0,29.3,11111222 
TABS,ioos:station:wmo:42048:1,2016-07-03T21:00:00Z,27.9396,-96.8429,-2.0,29.31,11111222 
TABS,ioos:station:wmo:42048:1,2016-07-03T21:30:00Z,27.9396,-96.8429,-2.0,29.31,11111222 
TABS,ioos:station:wmo:42048:1,2016-07-03T22:00:00Z,27.9396,-96.8429,-2.0,29.29,11111222 
TABS,ioos:station:wmo:42048:1,2016-07-03T22:30:00Z,27.9396,-96.8429,-2.0,29.27,11111222 
TABS,ioos:station:wmo:42048:1,2016-07-03T23:00:00Z,27.9396,-96.8429,-2.0,29.26,11111222 
TABS,ioos:station:wmo:42048:1,2016-07-03T23:30:00Z,27.9396,-96.8429,-2.0,29.25,11111222 
TABS,ioos:station:wmo:42048:1,2016-07-04T00:00:00Z,27.9396,-96.8429,-2.0,29.22,11111222 
TABS,ioos:station:wmo:42048:1,2016-07-04T00:30:00Z,27.9396,-96.8429,-2.0,29.17,11111222 
TABS,ioos:station:wmo:42048:1,2016-07-04T01:00:00Z,27.9396,-96.8429,-2.0,29.13,11111222 
TABS,ioos:station:wmo:42048:1,2016-07-04T01:30:00Z,27.9396,-96.8429,-2.0,29.08,11111222 
TABS,ioos:station:wmo:42048:1,2016-07-04T02:00:00Z,27.9396,-96.8429,-2.0,29.07,11111222 
TABS,ioos:station:wmo:42048:1,2016-07-04T02:30:00Z,27.9396,-96.8429,-2.0,29.11,11111222 
TABS,ioos:station:wmo:42048:1,2016-07-04T03:00:00Z,27.9396,-96.8429,-2.0,29.03,11111222 
TABS,ioos:station:wmo:42048:1,2016-07-04T03:30:00Z,27.9396,-96.8429,-2.0,28.85,11111222 
TABS,ioos:station:wmo:42048:1,2016-07-04T04:00:00Z,27.9396,-96.8429,-2.0,28.79,11111222 
TABS,ioos:station:wmo:42048:1,2016-07-04T04:30:00Z,27.9396,-96.8429,-2.0,28.65,11111222 
TABS,ioos:station:wmo:42048:1,2016-07-04T05:00:00Z,27.9396,-96.8429,-2.0,28.61,11111222 
TABS,ioos:station:wmo:42048:1,2016-07-04T05:30:00Z,27.9396,-96.8429,-2.0,28.66,11111222 
TABS,ioos:station:wmo:42048:1,2016-07-04T06:00:00Z,27.9396,-96.8429,-2.0,28.74,11111222 
TABS,ioos:station:wmo:42048:1,2016-07-04T06:30:00Z,27.9396,-96.8429,-2.0,28.76,11111222 
TABS,ioos:station:wmo:42048:1,2016-07-04T07:00:00Z,27.9396,-96.8429,-2.0,28.71,11111222 
TABS,ioos:station:wmo:42048:1,2016-07-04T07:30:00Z,27.9396,-96.8429,-2.0,28.47,11111222 
TABS,ioos:station:wmo:42048:1,2016-07-04T08:00:00Z,27.9396,-96.8429,-2.0,28.14,11111222 
TABS,ioos:station:wmo:42048:1,2016-07-04T08:30:00Z,27.9396,-96.8429,-2.0,28.13,11111222 
TABS,ioos:station:wmo:42048:1,2016-07-04T09:00:00Z,27.9396,-96.8429,-2.0,28.08,11111222 
TABS,ioos:station:wmo:42048:1,2016-07-04T09:30:00Z,27.9396,-96.8429,-2.0,28.03,11111222 
TABS,ioos:station:wmo:42048:1,2016-07-04T10:00:00Z,27.9396,-96.8429,-2.0,27.99,11111222 
TABS,ioos:station:wmo:42048:1,2016-07-04T10:30:00Z,27.9396,-96.8429,-2.0,27.92,11111222 
TABS,ioos:station:wmo:42048:1,2016-07-04T11:00:00Z,27.9396,-96.8429,-2.0,27.84,11111222 
TABS,ioos:station:wmo:42048:1,2016-07-04T11:30:00Z,27.9396,-96.8429,-2.0,27.74,11111222 
TABS,ioos:station:wmo:42048:1,2016-07-04T12:00:00Z,27.9396,-96.8429,-2.0,27.62,11111222 
TABS,ioos:station:wmo:42048:1,2016-07-04T12:30:00Z,27.9396,-96.8429,-2.0,27.65,11111222 
TABS,ioos:station:wmo:42048:1,2016-07-04T13:00:00Z,27.9396,-96.8429,-2.0,27.68,11111222 
TABS,ioos:station:wmo:42048:1,2016-07-04T13:30:00Z,27.9396,-96.8429,-2.0,27.74,11111222 
TABS,ioos:station:wmo:42048:1,2016-07-04T14:00:00Z,27.9396,-96.8429,-2.0,27.7,11111222 
TABS,ioos:station:wmo:42048:1,2016-07-04T14:30:00Z,27.9396,-96.8429,-2.0,27.72,11111222 
TABS,ioos:station:wmo:42048:1,2016-07-04T15:00:00Z,27.9396,-96.8429,-2.0,27.83,11111222 
TABS,ioos:station:wmo:42048:1,2016-07-04T15:30:00Z,27.9396,-96.8429,-2.0,27.87,11111222 
TABS,ioos:station:wmo:42048:1,2016-07-04T16:00:00Z,27.9396,-96.8429,-2.0,27.91,11111222 
TABS,ioos:station:wmo:42048:1,2016-07-04T16:30:00Z,27.9396,-96.8429,-2.0,27.92,11111222 
TABS,ioos:station:wmo:42048:1,2016-07-04T17:00:00Z,27.9396,-96.8429,-2.0,27.97,11111222 
TABS,ioos:station:wmo:42048:1,2016-07-04T17:30:00Z,27.9396,-96.8429,-2.0,27.98,11111222 
TABS,ioos:station:wmo:42048:1,2016-07-04T18:00:00Z,27.9396,-96.8429,-2.0,28.02,11111222 
TABS,ioos:station:wmo:42048:1,2016-07-04T18:30:00Z,27.9396,-96.8429,-2.0,27.97,11111222 
TABS,ioos:station:wmo:42048:1,2016-07-04T19:00:00Z,27.9396,-96.8429,-2.0,28.01,11111222 
TABS,ioos:station:wmo:42048:1,2016-07-04T19:30:00Z,27.9396,-96.8429,-2.0,27.92,11111222 
TABS,ioos:station:wmo:42048:1,2016-07-04T20:00:00Z,27.9396,-96.8429,-2.0,28.0,11111222 
TABS,ioos:station:wmo:42048:1,2016-07-04T20:30:00Z,27.9396,-96.8429,-2.0,27.97,11111222 
TABS,ioos:station:wmo:42048:1,2016-07-04T21:00:00Z,27.9396,-96.8429,-2.0,27.89,11111222 
TABS,ioos:station:wmo:42048:1,2016-07-04T21:30:00Z,27.9396,-96.8429,-2.0,27.86,11111222 
TABS,ioos:station:wmo:42048:1,2016-07-04T22:00:00Z,27.9396,-96.8429,-2.0,27.89,11111222 
TABS,ioos:station:wmo:42048:1,2016-07-04T22:30:00Z,27.9396,-96.8429,-2.0,27.84,11111222 
TABS,ioos:station:wmo:42048:1,2016-07-04T23:00:00Z,27.9396,-96.8429,-2.0,27.77,11111222 
TABS,ioos:station:wmo:42048:1,2016-07-04T23:30:00Z,27.9396,-96.8429,-2.0,27.74,11111222 
TABS,ioos:station:wmo:42048:1,2016-07-05T00:00:00Z,27.9396,-96.8429,-2.0,27.72,11111222 
TABS,ioos:station:wmo:42048:1,2016-07-05T00:30:00Z,27.9396,-96.8429,-2.0,27.59,11111222 
TABS,ioos:station:wmo:42048:1,2016-07-05T01:00:00Z,27.9396,-96.8429,-2.0,27.54,11111222 
TABS,ioos:station:wmo:42048:1,2016-07-05T01:30:00Z,27.9396,-96.8429,-2.0,27.5,11111222 
TABS,ioos:station:wmo:42048:1,2016-07-05T02:00:00Z,27.9396,-96.8429,-2.0,27.5,11111222 
TABS,ioos:station:wmo:42048:1,2016-07-05T02:30:00Z,27.9396,-96.8429,-2.0,27.49,11111222 
TABS,ioos:station:wmo:42048:1,2016-07-05T03:00:00Z,27.9396,-96.8429,-2.0,27.5,11111222 
TABS,ioos:station:wmo:42048:1,2016-07-05T03:30:00Z,27.9396,-96.8429,-2.0,27.51,11111222 
TABS,ioos:station:wmo:42048:1,2016-07-05T04:00:00Z,27.9396,-96.8429,-2.0,27.52,11111222 
TABS,ioos:station:wmo:42048:1,2016-07-05T04:30:00Z,27.9396,-96.8429,-2.0,27.41,11111222 
TABS,ioos:station:wmo:42048:1,2016-07-05T05:00:00Z,27.9396,-96.8429,-2.0,27.31,11111222 
TABS,ioos:station:wmo:42048:1,2016-07-05T05:30:00Z,27.9396,-96.8429,-2.0,27.3,11111222 
TABS,ioos:station:wmo:42048:1,2016-07-05T06:00:00Z,27.9396,-96.8429,-2.0,27.31,11111222 
TABS,ioos:station:wmo:42048:1,2016-07-05T06:30:00Z,27.9396,-96.8429,-2.0,27.27,11111222 
TABS,ioos:station:wmo:42048:1,2016-07-05T07:00:00Z,27.9396,-96.8429,-2.0,27.23,11111222 
TABS,ioos:station:wmo:42048:1,2016-07-05T07:30:00Z,27.9396,-96.8429,-2.0,27.16,11111222 
TABS,ioos:station:wmo:42048:1,2016-07-05T08:00:00Z,27.9396,-96.8429,-2.0,27.04,11111222 
TABS,ioos:station:wmo:42048:1,2016-07-05T08:30:00Z,27.9396,-96.8429,-2.0,26.97,11111222 
TABS,ioos:station:wmo:42048:1,2016-07-05T09:00:00Z,27.9396,-96.8429,-2.0,26.88,11111222 
TABS,ioos:station:wmo:42048:1,2016-07-05T09:30:00Z,27.9396,-96.8429,-2.0,26.8,11111222 
TABS,ioos:station:wmo:42048:1,2016-07-05T10:00:00Z,27.9396,-96.8429,-2.0,26.77,11111222 
TABS,ioos:station:wmo:42048:1,2016-07-05T10:30:00Z,27.9396,-96.8429,-2.0,26.74,11111222 
TABS,ioos:station:wmo:42048:1,2016-07-05T11:00:00Z,27.9396,-96.8429,-2.0,26.71,11111222 
TABS,ioos:station:wmo:42048:1,2016-07-05T11:30:00Z,27.9396,-96.8429,-2.0,26.67,11111222 
TABS,ioos:station:wmo:42048:1,2016-07-05T12:00:00Z,27.9396,-96.8429,-2.0,27.26,11111222 
TABS,ioos:station:wmo:42048:1,2016-07-05T12:30:00Z,27.9396,-96.8429,-2.0,27.47,11111222 
TABS,ioos:station:wmo:42048:1,2016-07-05T13:00:00Z,27.9396,-96.8429,-2.0,27.55,11111222 
TABS,ioos:station:wmo:42048:1,2016-07-05T13:30:00Z,27.9396,-96.8429,-2.0,27.64,11111222 
TABS,ioos:station:wmo:42048:1,2016-07-05T14:00:00Z,27.9396,-96.8429,-2.0,27.72,11111222 
TABS,ioos:station:wmo:42048:1,2016-07-05T14:30:00Z,27.9396,-96.8429,-2.0,27.74,11111222 
TABS,ioos:station:wmo:42048:1,2016-07-05T15:00:00Z,27.9396,-96.8429,-2.0,27.74,11111222 
TABS,ioos:station:wmo:42048:1,2016-07-05T15:30:00Z,27.9396,-96.8429,-2.0,27.77,11111222 
TABS,ioos:station:wmo:42048:1,2016-07-05T16:00:00Z,27.9396,-96.8429,-2.0,27.74,11111222 
TABS,ioos:station:wmo:42048:1,2016-07-05T16:30:00Z,27.9396,-96.8429,-2.0,27.69,11111222 
TABS,ioos:station:wmo:42048:1,2016-07-05T17:00:00Z,27.9396,-96.8429,-2.0,27.66,11111222 
TABS,ioos:station:wmo:42048:1,2016-07-05T17:30:00Z,27.9396,-96.8429,-2.0,27.65,11111222 
TABS,ioos:station:wmo:42048:1,2016-07-05T18:00:00Z,27.9396,-96.8429,-2.0,27.62,11111222 
TABS,ioos:station:wmo:42048:1,2016-07-05T18:30:00Z,27.9396,-96.8429,-2.0,27.61,11111222 
TABS,ioos:station:wmo:42048:1,2016-07-05T19:00:00Z,27.9396,-96.8429,-2.0,27.55,11111222 
TABS,ioos:station:wmo:42048:1,2016-07-05T19:30:00Z,27.9396,-96.8429,-2.0,27.53,11111222 
TABS,ioos:station:wmo:42048:1,2016-07-05T20:00:00Z,27.9396,-96.8429,-2.0,27.52,11111222 
TABS,ioos:station:wmo:42048:1,2016-07-05T20:30:00Z,27.9396,-96.8429,-2.0,27.45,11111222 
TABS,ioos:station:wmo:42048:1,2016-07-05T21:00:00Z,27.9396,-96.8429,-2.0,27.33,11111222 
TABS,ioos:station:wmo:42048:1,2016-07-05T21:30:00Z,27.9396,-96.8429,-2.0,27.21,11111222 
TABS,ioos:station:wmo:42048:1,2016-07-05T22:00:00Z,27.9396,-96.8429,-2.0,27.08,11111222 
TABS,ioos:station:wmo:42048:1,2016-07-05T22:30:00Z,27.9396,-96.8429,-2.0,26.94,11111222 
TABS,ioos:station:wmo:42048:1,2016-07-05T23:00:00Z,27.9396,-96.8429,-2.0,26.92,11111222 
TABS,ioos:station:wmo:42048:1,2016-07-05T23:30:00Z,27.9396,-96.8429,-2.0,26.82,11111222 
TABS,ioos:station:wmo:42048:1,2016-07-06T00:00:00Z,27.9396,-96.8429,-2.0,26.75,11111222 
TABS,ioos:station:wmo:42048:1,2016-07-06T00:30:00Z,27.9396,-96.8429,-2.0,26.65,11111222 
TABS,ioos:station:wmo:42048:1,2016-07-06T01:00:00Z,27.9396,-96.8429,-2.0,26.61,11111222 
TABS,ioos:station:wmo:42048:1,2016-07-06T01:30:00Z,27.9396,-96.8429,-2.0,26.56,11111222 
TABS,ioos:station:wmo:42048:1,2016-07-06T02:00:00Z,27.9396,-96.8429,-2.0,26.51,11111222 
TABS,ioos:station:wmo:42048:1,2016-07-06T02:30:00Z,27.9396,-96.8429,-2.0,26.48,11111222 
TABS,ioos:station:wmo:42048:1,2016-07-06T03:00:00Z,27.9396,-96.8429,-2.0,26.43,11111222 
TABS,ioos:station:wmo:42048:1,2016-07-06T03:30:00Z,27.9396,-96.8429,-2.0,26.39,11111222 
TABS,ioos:station:wmo:42048:1,2016-07-06T04:00:00Z,27.9396,-96.8429,-2.0,26.36,11111222 
TABS,ioos:station:wmo:42048:1,2016-07-06T04:30:00Z,27.9396,-96.8429,-2.0,26.32,11111222 
TABS,ioos:station:wmo:42048:1,2016-07-06T05:00:00Z,27.9396,-96.8429,-2.0,26.3,11111222 
TABS,ioos:station:wmo:42048:1,2016-07-06T05:30:00Z,27.9396,-96.8429,-2.0,26.25,11111222 
TABS,ioos:station:wmo:42048:1,2016-07-06T06:00:00Z,27.9396,-96.8429,-2.0,26.19,11111222 
TABS,ioos:station:wmo:42048:1,2016-07-06T06:30:00Z,27.9396,-96.8429,-2.0,26.15,11111222 
TABS,ioos:station:wmo:42048:1,2016-07-06T07:00:00Z,27.9396,-96.8429,-2.0,26.11,11111222 
TABS,ioos:station:wmo:42048:1,2016-07-06T07:30:00Z,27.9396,-96.8429,-2.0,26.06,11111222 
TABS,ioos:station:wmo:42048:1,2016-07-06T08:00:00Z,27.9396,-96.8429,-2.0,26.02,11111222 
TABS,ioos:station:wmo:42048:1,2016-07-06T08:30:00Z,27.9396,-96.8429,-2.0,25.97,11111222 
TABS,ioos:station:wmo:42048:1,2016-07-06T09:00:00Z,27.9396,-96.8429,-2.0,25.94,11111222 
TABS,ioos:station:wmo:42048:1,2016-07-06T09:30:00Z,27.9396,-96.8429,-2.0,25.91,11111222 
TABS,ioos:station:wmo:42048:1,2016-07-06T10:00:00Z,27.9396,-96.8429,-2.0,25.89,11111222 
TABS,ioos:station:wmo:42048:1,2016-07-06T10:30:00Z,27.9396,-96.8429,-2.0,25.87,11111222 
TABS,ioos:station:wmo:42048:1,2016-07-06T11:00:00Z,27.9396,-96.8429,-2.0,25.87,11111222 
TABS,ioos:station:wmo:42048:1,2016-07-06T11:30:00Z,27.9396,-96.8429,-2.0,25.86,11111222 
TABS,ioos:station:wmo:42048:1,2016-07-06T12:00:00Z,27.9396,-96.8429,-2.0,25.86,11111222 
TABS,ioos:station:wmo:42048:1,2016-07-06T12:30:00Z,27.9396,-96.8429,-2.0,25.84,11111222 
TABS,ioos:station:wmo:42048:1,2016-07-06T13:00:00Z,27.9396,-96.8429,-2.0,25.82,11111222 
TABS,ioos:station:wmo:42048:1,2016-07-06T13:30:00Z,27.9396,-96.8429,-2.0,25.81,11111222 
TABS,ioos:station:wmo:42048:1,2016-07-06T14:00:00Z,27.9396,-96.8429,-2.0,26.33,11111222 
TABS,ioos:station:wmo:42048:1,2016-07-06T14:30:00Z,27.9396,-96.8429,-2.0,26.53,11111222 
TABS,ioos:station:wmo:42048:1,2016-07-06T15:00:00Z,27.9396,-96.8429,-2.0,26.59,11111222 
TABS,ioos:station:wmo:42048:1,2016-07-06T15:30:00Z,27.9396,-96.8429,-2.0,26.68,11111222 
TABS,ioos:station:wmo:42048:1,2016-07-06T16:00:00Z,27.9396,-96.8429,-2.0,26.77,11111222 
TABS,ioos:station:wmo:42048:1,2016-07-06T16:30:00Z,27.9396,-96.8429,-2.0,26.87,11111222 
TABS,ioos:station:wmo:42048:1,2016-07-06T17:00:00Z,27.9396,-96.8429,-2.0,26.96,11111222 
TABS,ioos:station:wmo:42048:1,2016-07-06T17:30:00Z,27.9396,-96.8429,-2.0,27.07,11111222 
TABS,ioos:station:wmo:42048:1,2016-07-06T18:00:00Z,27.9396,-96.8429,-2.0,27.16,11111222 
TABS,ioos:station:wmo:42048:1,2016-07-06T18:30:00Z,27.9396,-96.8429,-2.0,27.24,11111222 
TABS,ioos:station:wmo:42048:1,2016-07-06T19:00:00Z,27.9396,-96.8429,-2.0,27.31,11111222 
TABS,ioos:station:wmo:42048:1,2016-07-06T19:30:00Z,27.9396,-96.8429,-2.0,27.35,11111222 
TABS,ioos:station:wmo:42048:1,2016-07-06T20:00:00Z,27.9396,-96.8429,-2.0,27.4,11111222 
TABS,ioos:station:wmo:42048:1,2016-07-06T20:30:00Z,27.9396,-96.8429,-2.0,27.45,11111222 
TABS,ioos:station:wmo:42048:1,2016-07-06T21:00:00Z,27.9396,-96.8429,-2.0,27.4,11111222 
TABS,ioos:station:wmo:42048:1,2016-07-06T21:30:00Z,27.9396,-96.8429,-2.0,27.33,11111222 
TABS,ioos:station:wmo:42048:1,2016-07-06T22:00:00Z,27.9396,-96.8429,-2.0,27.21,11111222 
TABS,ioos:station:wmo:42048:1,2016-07-06T22:30:00Z,27.9396,-96.8429,-2.0,27.1,11111222 
TABS,ioos:station:wmo:42048:1,2016-07-06T23:00:00Z,27.9396,-96.8429,-2.0,27.0,11111222 
TABS,ioos:station:wmo:42048:1,2016-07-06T23:30:00Z,27.9396,-96.8429,-2.0,26.91,11111222 
TABS,ioos:station:wmo:42048:1,2016-07-07T00:00:00Z,27.9396,-96.8429,-2.0,26.84,11111222 
TABS,ioos:station:wmo:42048:1,2016-07-07T00:30:00Z,27.9396,-96.8429,-2.0,26.7,11111222 
TABS,ioos:station:wmo:42048:1,2016-07-07T01:00:00Z,27.9396,-96.8429,-2.0,26.57,11111222 
TABS,ioos:station:wmo:42048:1,2016-07-07T01:30:00Z,27.9396,-96.8429,-2.0,26.41,11111222 
TABS,ioos:station:wmo:42048:1,2016-07-07T02:00:00Z,27.9396,-96.8429,-2.0,26.34,11111222 
TABS,ioos:station:wmo:42048:1,2016-07-07T02:30:00Z,27.9396,-96.8429,-2.0,26.21,11111222 
TABS,ioos:station:wmo:42048:1,2016-07-07T03:00:00Z,27.9396,-96.8429,-2.0,26.19,11111222 
TABS,ioos:station:wmo:42048:1,2016-07-07T03:30:00Z,27.9396,-96.8429,-2.0,26.16,11111222 
TABS,ioos:station:wmo:42048:1,2016-07-07T04:00:00Z,27.9396,-96.8429,-2.0,26.12,11111222 
TABS,ioos:station:wmo:42048:1,2016-07-07T04:30:00Z,27.9396,-96.8429,-2.0,26.11,11111222 
TABS,ioos:station:wmo:42048:1,2016-07-07T05:00:00Z,27.9396,-96.8429,-2.0,26.09,11111222 
TABS,ioos:station:wmo:42048:1,2016-07-07T05:30:00Z,27.9396,-96.8429,-2.0,26.05,11111222 
TABS,ioos:station:wmo:42048:1,2016-07-07T06:00:00Z,27.9396,-96.8429,-2.0,26.04,11111222 
TABS,ioos:station:wmo:42048:1,2016-07-07T06:30:00Z,27.9396,-96.8429,-2.0,25.99,11111222 
TABS,ioos:station:wmo:42048:1,2016-07-07T07:00:00Z,27.9396,-96.8429,-2.0,25.97,11111222 
TABS,ioos:station:wmo:42048:1,2016-07-07T07:30:00Z,27.9396,-96.8429,-2.0,25.94,11111222 
TABS,ioos:station:wmo:42048:1,2016-07-07T08:00:00Z,27.9396,-96.8429,-2.0,25.94,11111222 
TABS,ioos:station:wmo:42048:1,2016-07-07T08:30:00Z,27.9396,-96.8429,-2.0,25.93,11111222 
TABS,ioos:station:wmo:42048:1,2016-07-07T09:00:00Z,27.9396,-96.8429,-2.0,25.92,11111222 
TABS,ioos:station:wmo:42048:1,2016-07-07T09:30:00Z,27.9396,-96.8429,-2.0,25.9,11111222 
TABS,ioos:station:wmo:42048:1,2016-07-07T10:00:00Z,27.9396,-96.8429,-2.0,25.89,11111222 
TABS,ioos:station:wmo:42048:1,2016-07-07T10:30:00Z,27.9396,-96.8429,-2.0,25.85,11111222 
TABS,ioos:station:wmo:42048:1,2016-07-07T11:00:00Z,27.9396,-96.8429,-2.0,25.84,11111222 
TABS,ioos:station:wmo:42048:1,2016-07-07T11:30:00Z,27.9396,-96.8429,-2.0,25.83,11111222 
TABS,ioos:station:wmo:42048:1,2016-07-07T12:00:00Z,27.9396,-96.8429,-2.0,25.81,11111222 
TABS,ioos:station:wmo:42048:1,2016-07-07T12:30:00Z,27.9396,-96.8429,-2.0,25.81,11111222 
TABS,ioos:station:wmo:42048:1,2016-07-07T13:00:00Z,27.9396,-96.8429,-2.0,25.8,11111222 
TABS,ioos:station:wmo:42048:1,2016-07-07T13:30:00Z,27.9396,-96.8429,-2.0,25.79,11111222 
TABS,ioos:station:wmo:42048:1,2016-07-07T14:00:00Z,27.9396,-96.8429,-2.0,25.82,11111222 
TABS,ioos:station:wmo:42048:1,2016-07-07T14:30:00Z,27.9396,-96.8429,-2.0,25.83,11111222 
TABS,ioos:station:wmo:42048:1,2016-07-07T15:00:00Z,27.9396,-96.8429,-2.0,25.86,11111222 
TABS,ioos:station:wmo:42048:1,2016-07-07T15:30:00Z,27.9396,-96.8429,-2.0,25.91,11111222 
TABS,ioos:station:wmo:42048:1,2016-07-07T16:00:00Z,27.9396,-96.8429,-2.0,26.03,11111222 
TABS,ioos:station:wmo:42048:1,2016-07-07T16:30:00Z,27.9396,-96.8429,-2.0,26.13,11111222 
TABS,ioos:station:wmo:42048:1,2016-07-07T17:00:00Z,27.9396,-96.8429,-2.0,26.22,11111222 
TABS,ioos:station:wmo:42048:1,2016-07-07T17:30:00Z,27.9396,-96.8429,-2.0,26.34,11111222 
TABS,ioos:station:wmo:42048:1,2016-07-07T18:00:00Z,27.9396,-96.8429,-2.0,26.56,11111222 
TABS,ioos:station:wmo:42048:1,2016-07-07T18:30:00Z,27.9396,-96.8429,-2.0,26.62,11111222 
TABS,ioos:station:wmo:42048:1,2016-07-07T19:00:00Z,27.9396,-96.8429,-2.0,26.86,11111222 
TABS,ioos:station:wmo:42048:1,2016-07-07T19:30:00Z,27.9396,-96.8429,-2.0,27.15,11111222 
TABS,ioos:station:wmo:42048:1,2016-07-07T20:00:00Z,27.9396,-96.8429,-2.0,27.31,11111222 
TABS,ioos:station:wmo:42048:1,2016-07-07T20:30:00Z,27.9396,-96.8429,-2.0,27.44,11111222 
TABS,ioos:station:wmo:42048:1,2016-07-07T21:00:00Z,27.9396,-96.8429,-2.0,27.52,11111222 
TABS,ioos:station:wmo:42048:1,2016-07-07T21:30:00Z,27.9396,-96.8429,-2.0,27.58,11111222 
TABS,ioos:station:wmo:42048:1,2016-07-07T22:00:00Z,27.9396,-96.8429,-2.0,27.59,11111222 
TABS,ioos:station:wmo:42048:1,2016-07-07T22:30:00Z,27.9396,-96.8429,-2.0,27.63,11111222 
TABS,ioos:station:wmo:42048:1,2016-07-07T23:00:00Z,27.9396,-96.8429,-2.0,27.54,11111222 
TABS,ioos:station:wmo:42048:1,2016-07-07T23:30:00Z,27.9396,-96.8429,-2.0,27.44,11111222 
TABS,ioos:station:wmo:42048:1,2016-07-08T00:00:00Z,27.9396,-96.8429,-2.0,27.25,11111222 
TABS,ioos:station:wmo:42048:1,2016-07-08T00:30:00Z,27.9396,-96.8429,-2.0,27.04,11111222 
TABS,ioos:station:wmo:42048:1,2016-07-08T01:00:00Z,27.9396,-96.8429,-2.0,26.72,11111222 
TABS,ioos:station:wmo:42048:1,2016-07-08T01:30:00Z,27.9396,-96.8429,-2.0,26.45,11111222 
TABS,ioos:station:wmo:42048:1,2016-07-08T02:00:00Z,27.9396,-96.8429,-2.0,26.35,11111222 
TABS,ioos:station:wmo:42048:1,2016-07-08T02:30:00Z,27.9396,-96.8429,-2.0,26.24,11111222 
TABS,ioos:station:wmo:42048:1,2016-07-08T03:00:00Z,27.9396,-96.8429,-2.0,26.16,11111222 
TABS,ioos:station:wmo:42048:1,2016-07-08T03:30:00Z,27.9396,-96.8429,-2.0,26.1,11111222 
TABS,ioos:station:wmo:42048:1,2016-07-08T04:00:00Z,27.9396,-96.8429,-2.0,26.05,11111222 
TABS,ioos:station:wmo:42048:1,2016-07-08T04:30:00Z,27.9396,-96.8429,-2.0,26.06,11111222 
TABS,ioos:station:wmo:42048:1,2016-07-08T05:00:00Z,27.9396,-96.8429,-2.0,26.06,11111222 